Location: Newark
(0.5300°S, 127.4800°E)
Time: 05:40:56
(UTC+00:00)

Vanguard 3 - Pass Details

Date: 27 September 2019
Orbit: 508 x 3262 km, 33.3° (Epoch: 18 October)

Event Time Altitude Azimuth Distance (km) Brightness Sun altitude
Rises 00:48:42 0° 319° (NW) 6,266 11.4 51.8°
Reaches altitude 10° 00:55:06 10° 337° (NNW) 5,688 11.4 53.4°
Maximum altitude 01:06:11 18° 15° (NNE) 5,432 11.7 56.2°
Drops below altitude 10° 01:18:00 10° 52° (NE) 6,143 12.1 59.2°
Sets 01:25:19 0° 69° (ENE) 6,941 12.3 61.0°
